Wakefield, VA

9:28 AM EDT on August 27, 2016 (GMT -0400)
Wakefield Municipal

Weather History for KAKQ - January, 2013

Change the Weather History Date:

Tuesday, January 1, 2013

  Actual Average (KJGG) Record (KJGG)
Temperature  
Mean Temperature 44 °F -  
Max Temperature 46 °F 51 °F 80 °F (1952)
Min Temperature 41 °F 33 °F 12 °F (1984)
Degree Days  
Heating Degree Days 22    
Moisture  
Dew Point 38 °F    
Average Humidity 77    
Maximum Humidity 96    
Minimum Humidity 47    
Precipitation  
Precipitation 0.23 in - - ()
Sea Level Pressure  
Sea Level Pressure 30.01 in    
Wind  
Wind Speed 3 mph (SW)    
Max Wind Speed 7 mph    
Max Gust Speed -    
Visibility 6 miles    
Events Rain    
Averages and records for this station are not official NWS values.
T = Trace of Precipitation, MM = Missing Value Source: NWS Daily Summary

Daily Weather History Graph

Daily Weather History Graph

Search for Another Location

Airport or City:

Trip Planner

Search our weather history database for the weather conditions in past years. The results will help you decide how hot, cold, wet, or windy it might be!

Date:

Astronomy

Jan. 01, 2013 Rise Set
Actual Time 7:21 AM EST 5:02 PM EST
Civil Twilight 6:52 AM EST 5:31 PM EST
Nautical Twilight 6:20 AM EST 6:03 PM EST
Astronomical Twilight 5:48 AM EST 6:35 PM EST
Moon 9:24 PM EST (1/1) 9:38 AM EST (1/1)
Length of Visible Light 10h 38m
Length of Day
9h 41m
Waning Gibbous, 83% of the Moon is Illuminated
Jan 1
Waning Gibbous
Jan 4
Last Quarter
Jan 11
New
Jan 18
First Quarter
Jan 26
Full

Hourly Weather History & Observations

Time (EST) Temp. Windchill Dew Point Humidity Pressure Visibility Wind Dir Wind Speed Gust Speed Precip Events Conditions
12:54 AM 46.0 °F 43.9 °F 27.0 °F 47% 30.06 in 9.0 mi SSW 4.6 mph - N/A   Clear
1:54 AM 46.0 °F - 27.0 °F 47% 30.07 in 8.0 mi Calm Calm - N/A   Clear
2:54 AM 45.0 °F 43.5 °F 28.0 °F 52% 30.04 in 10.0 mi SSW 3.5 mph - N/A   Clear
3:54 AM 45.0 °F 41.2 °F 28.0 °F 52% 30.03 in 9.0 mi SW 6.9 mph - N/A   Partly Cloudy
4:54 AM 45.0 °F 41.8 °F 28.0 °F 52% 30.03 in 10.0 mi SW 5.8 mph - N/A   Overcast
5:54 AM 45.0 °F 42.6 °F 30.0 °F 56% 30.05 in 9.0 mi WSW 4.6 mph - N/A   Overcast
7:54 AM 42.1 °F 40.2 °F 36.0 °F 79% 30.05 in 5.0 mi SSW 3.5 mph - 0.02 in Rain Light Rain
8:54 AM 41.0 °F 39.0 °F 37.0 °F 86% 30.03 in 4.0 mi SSW 3.5 mph - 0.03 in Rain Light Rain
9:54 AM 42.1 °F 39.2 °F 37.0 °F 82% 30.06 in 4.0 mi WSW 4.6 mph - 0.02 in Rain Light Rain
10:54 AM 44.1 °F 41.5 °F 37.9 °F 79% 30.01 in 7.0 mi Variable 4.6 mph - 0.01 in   Partly Cloudy
11:54 AM 45.0 °F 42.6 °F 37.9 °F 76% 29.99 in 7.0 mi SW 4.6 mph - N/A   Mostly Cloudy
12:54 PM 46.0 °F 44.8 °F 39.0 °F 76% 29.97 in 7.0 mi Variable 3.5 mph - 0.00 in   Mostly Cloudy
1:54 PM 46.0 °F 44.8 °F 39.0 °F 76% 29.96 in 9.0 mi Variable 3.5 mph - 0.00 in   Overcast
2:54 PM 46.0 °F 43.9 °F 39.9 °F 79% 29.95 in 7.0 mi WSW 4.6 mph - N/A   Overcast
3:54 PM 46.9 °F - 39.0 °F 74% 29.96 in 9.0 mi WSW 5.8 mph - N/A   Overcast
4:54 PM 46.0 °F - 41.0 °F 83% 29.96 in 5.0 mi Calm Calm - 0.00 in Rain Light Rain
5:54 PM 45.0 °F - 41.0 °F 86% 29.96 in 8.0 mi Calm Calm - 0.00 in   Overcast
6:54 PM 45.0 °F - 41.0 °F 86% 29.99 in 8.0 mi Calm Calm - N/A   Overcast
7:54 PM 45.0 °F - 41.0 °F 86% 29.98 in 7.0 mi Calm Calm - N/A   Overcast
8:54 PM 45.0 °F - 42.1 °F 90% 29.99 in 5.0 mi Calm Calm - 0.01 in Rain Light Rain
9:54 PM 45.0 °F - 42.1 °F 90% 29.99 in 4.0 mi Calm Calm - 0.01 in Rain Light Rain
10:25 PM 44.6 °F - 42.8 °F 93% 29.99 in 2.5 mi Calm Calm - 0.04 in Rain Light Rain
10:32 PM 44.6 °F - 42.8 °F 93% 29.99 in 3.0 mi Calm Calm - 0.05 in Rain Light Rain
10:54 PM 45.0 °F - 42.1 °F 90% 30.01 in 3.0 mi Calm Calm - 0.07 in Rain Light Rain
11:07 PM 44.6 °F - 42.8 °F 93% 30.01 in 2.5 mi Calm Calm - 0.01 in Rain Light Rain
11:52 PM 44.6 °F - 42.8 °F 93% 30.00 in 3.0 mi Calm Calm - 0.06 in Rain Light Rain
11:54 PM 44.1 °F - 43.0 °F 96% 30.01 in 3.0 mi Calm Calm - 0.06 in Rain Light Rain